Date String (YYYY-MM-DD hh:mm:ss) UTC,Instrument flags,absolute air pressure of the measurement (hPa),sample flow rate (lpm),inlet stack bypass flow (lpm),air temperature of the measurement (°C),ambient temperature measured by the external sensor (°C),aerosol sample conditioner tube jacket temperature (°C),OPC LED temperature (°C),internal box temperature (°C),relative humidity of the measurement (%),span deviation,mass concentration of particles derived from Lorenz-Mie calculation of OPC scattering (μg/m³),mass concentration of particles derived from Lorenz-Mie calculation of OPC scattering (μg/m³),mass concentration of particles derived from Lorenz-Mie calculation of OPC scattering (μg/m³)
DateTimeUTC,F1_M11,P_M11,Q1_M11,Q2_M11,T1_M11,T2_M11,T3_M11,T4_M11,T5_M11,U1_M11,ZSPAN_M11,X0_M11,X2_M11,X1_M11
2024-01-26 08:00:00,SystemResetWarning,0829.0,5.00,000.00,022.6,021.8,000.0,031.0,024.0,18.6,0003.1,0008.98,0006.12,0005.83
2024-01-26 08:01:00,SystemResetWarning,0829.0,5.00,000.00,022.6,021.8,000.0,031.0,024.0,18.7,0003.1,0009.32,0006.05,0005.76
2024-01-26 08:02:00,SystemResetWarning,0829.0,5.00,000.00,022.6,021.8,000.0,031.0,024.0,18.6,0002.8,0009.18,0005.97,0005.70
2024-01-26 08:03:00,SystemResetWarning,0829.0,5.00,000.00,022.6,021.8,000.0,031.0,024.0,18.6,0002.8,0009.05,0005.87,0005.61
2024-01-26 08:04:00,SystemResetWarning,0829.0,5.00,000.00,022.6,021.8,000.0,031.0,024.0,18.5,0002.5,0008.99,0005.79,0005.52
2024-01-26 08:05:00,SystemResetWarning,0829.0,5.00,000.00,022.6,021.8,000.0,031.0,024.0,18.4,0002.6,0008.91,0005.71,0005.43
2024-01-26 08:06:00,SystemResetWarning,0829.0,5.00,000.00,022.6,021.8,000.0,031.0,024.0,18.4,0002.5,0008.85,0005.62,0005.34
2024-01-26 08:07:00,SystemResetWarning,0829.0,5.00,000.00,022.6,021.8,000.0,031.0,024.0,18.4,0002.7,0009.11,0005.53,0005.25
2024-01-26 08:08:00,SystemResetWarning,0829.0,5.00,000.00,022.6,021.8,000.0,031.0,024.0,18.7,0002.6,0009.16,0005.43,0005.17
2024-01-26 08:09:00,SystemResetWarning,0829.0,5.00,000.00,022.6,021.7,000.0,031.0,024.0,19.1,0002.4,0009.12,0005.40,0005.13
2024-01-26 08:10:00,SystemResetWarning,0829.0,5.00,000.00,022.6,021.7,000.0,031.0,024.0,19.3,0002.5,0009.03,0005.33,0005.08
2024-01-26 08:11:00,SystemResetWarning,0829.1,5.00,000.00,022.6,021.7,000.0,031.0,024.0,19.5,0002.0,0008.74,0005.25,0005.01
2024-01-26 08:12:00,SystemResetWarning,0829.1,5.00,000.00,022.6,021.7,000.0,031.0,024.0,19.6,0001.8,0008.14,0005.18,0004.95
2024-01-26 08:13:00,SystemResetWarning,0829.1,5.00,000.00,022.6,021.7,000.0,030.9,024.0,19.6,0000.5,0008.34,0005.12,0004.87
2024-01-26 08:14:00,SystemResetWarning,0829.1,5.00,000.00,022.6,021.7,000.0,031.0,024.0,19.7,0000.0,0008.36,0005.05,0004.81
2024-01-26 08:15:00,SystemResetWarning,0829.1,5.00,000.00,022.6,021.7,000.0,031.0,024.0,19.7,0000.2,0008.27,0005.00,0004.75
2024-01-26 08:16:00,SystemResetWarning,0829.1,5.00,000.00,022.6,021.7,000.0,031.0,024.0,19.6,0000.0,0008.39,0004.94,0004.71
2024-01-26 08:17:00,SystemResetWarning,0829.1,5.00,000.00,022.6,021.7,000.0,031.0,024.0,19.6,0000.0,0008.33,0004.89,0004.67
2024-01-26 08:18:00,SystemResetWarning,0829.1,5.00,000.00,022.6,021.7,000.0,030.9,024.0,19.5,0000.0,0008.01,0004.85,0004.63
2024-01-26 08:19:00,SystemResetWarning,0829.1,5.00,000.00,022.6,021.7,000.0,030.9,024.0,19.6,0000.0,0007.74,0004.84,0004.60
2024-01-26 08:20:00,SystemResetWarning,0829.1,5.00,000.00,022.6,021.6,000.0,030.9,024.0,19.6,0000.0,0007.66,0004.78,0004.56
2024-01-26 08:21:00,SystemResetWarning,0829.1,5.00,000.00,022.6,021.6,000.0,030.9,024.0,19.6,0000.0,0007.57,0004.75,0004.55
2024-01-26 08:22:00,SystemResetWarning,0829.2,5.00,000.00,022.6,021.6,000.0,030.9,024.0,19.6,0000.0,0007.53,0004.74,0004.55
2024-01-26 08:23:00,SystemResetWarning,0829.2,5.01,000.00,022.6,021.6,000.0,030.9,023.9,19.8,0000.0,0007.52,0004.73,0004.55
2024-01-26 08:24:00,SystemResetWarning,0829.2,5.01,000.00,022.6,021.6,000.0,030.9,024.0,19.9,0000.0,0007.30,0004.73,0004.56
2024-01-26 08:25:00,SystemResetWarning,0829.2,5.01,000.00,022.6,021.5,000.0,030.9,023.9,19.9,0000.0,0007.16,0004.72,0004.57
2024-01-26 08:26:00,SystemResetWarning,0829.2,5.00,000.00,022.6,021.5,000.0,030.9,023.9,20.0,0000.0,0007.19,0004.72,0004.58
2024-01-26 08:27:00,SystemResetWarning,0829.2,4.99,000.00,022.6,021.5,000.0,030.9,023.9,20.0,0000.0,0006.97,0004.73,0004.58
2024-01-26 08:28:00,SystemResetWarning,0829.2,4.99,000.00,022.6,021.5,000.0,030.9,023.9,20.1,0000.0,0006.85,0004.74,0004.59
2024-01-26 08:29:00,SystemResetWarning,0829.3,5.00,000.00,022.6,021.4,000.0,030.9,023.9,20.2,0000.0,0006.90,0004.75,0004.59
2024-01-26 08:30:00,SystemResetWarning,0829.3,4.99,000.00,022.6,021.4,000.0,030.9,023.9,20.2,0000.0,0006.73,0004.72,0004.58
2024-01-26 08:31:00,SystemResetWarning,0829.3,5.00,000.00,022.6,021.4,000.0,030.9,023.9,20.3,0000.0,0006.76,0004.73,0004.59
2024-01-26 08:32:00,SystemResetWarning,0829.3,5.01,000.00,022.6,021.4,000.0,030.9,023.9,20.4,0000.0,0006.91,0004.77,0004.61
2024-01-26 08:33:00,SystemResetWarning,0829.3,5.00,000.00,022.5,021.4,000.0,030.9,023.9,20.4,0000.0,0007.03,0004.80,0004.65
2024-01-26 08:34:00,SystemResetWarning,0829.4,5.00,000.00,022.5,021.4,000.0,030.9,023.9,20.5,0000.0,0007.14,0004.85,0004.68
2024-01-26 08:35:00,SystemResetWarning,0829.4,5.00,000.00,022.5,021.4,000.0,030.9,023.9,20.5,0000.0,0007.12,0004.89,0004.71
2024-01-26 08:36:00,SystemResetWarning,0829.4,5.00,000.00,022.5,021.4,000.0,030.9,023.9,20.5,0000.0,0007.28,0004.92,0004.73
2024-01-26 08:37:00,SystemResetWarning,0829.4,5.00,000.00,022.5,021.3,000.0,030.9,023.8,20.5,0000.4,0007.41,0004.98,0004.76
2024-01-26 08:38:00,SystemResetWarning,0829.4,5.00,000.00,022.5,021.3,000.0,030.9,023.8,20.5,0000.8,0007.43,0005.00,0004.78
2024-01-26 08:39:00,SystemResetWarning,0829.3,5.00,000.00,022.5,021.3,000.0,030.9,023.8,20.6,0000.1,0007.47,0005.04,0004.81
2024-01-26 08:40:00,SystemResetWarning,0829.3,5.00,000.00,022.5,021.3,000.0,030.8,023.8,20.5,0000.0,0007.59,0005.06,0004.84
2024-01-26 08:41:00,SystemResetWarning,0829.3,5.00,000.00,022.5,021.3,000.0,030.8,023.8,20.6,0000.0,0007.93,0005.12,0004.89
2024-01-26 08:42:00,SystemResetWarning,0829.4,5.00,000.00,022.5,021.3,000.0,030.8,023.8,20.6,0000.0,0008.05,0005.18,0004.92
2024-01-26 08:43:00,SystemResetWarning,0829.5,4.99,000.00,022.5,021.3,000.0,030.8,023.8,20.7,0000.0,0008.05,0005.19,0004.94
2024-01-26 08:44:00,SystemResetWarning,0829.5,5.00,000.00,022.5,021.3,000.0,030.8,023.8,20.7,0000.0,0008.02,0005.17,0004.93
2024-01-26 08:45:00,SystemResetWarning,0829.5,5.00,000.00,022.5,021.4,000.0,030.8,023.9,20.7,0000.0,0008.00,0005.17,0004.93
2024-01-26 08:46:00,SystemResetWarning,0829.5,5.00,000.00,022.5,021.4,000.0,030.8,023.9,20.7,0000.0,0007.95,0005.15,0004.93
2024-01-26 08:47:00,SystemResetWarning,0829.6,5.00,000.00,022.5,021.4,000.0,030.8,023.9,20.6,0000.0,0008.57,0005.15,0004.94
2024-01-26 08:48:00,SystemResetWarning,0829.6,5.00,000.00,022.5,021.4,000.0,030.8,023.9,20.7,-000.4,0008.60,0005.15,0004.97
2024-01-26 08:49:00,SystemResetWarning,0829.6,5.00,000.00,022.5,021.4,000.0,030.8,023.9,20.8,-002.3,0008.61,0005.18,0005.00
2024-01-26 08:50:00,SystemResetWarning,0829.6,5.00,000.00,022.5,021.5,000.0,030.8,023.9,20.9,-002.0,0008.60,0005.19,0005.03
2024-01-26 08:51:00,SystemResetWarning,0829.7,5.00,000.00,022.5,021.5,000.0,030.8,023.9,20.9,-001.8,0008.58,0005.20,0005.04
2024-01-26 08:52:00,SystemResetWarning,0829.7,5.00,000.00,022.5,021.5,000.0,030.8,023.9,21.0,-001.5,0008.28,0005.22,0005.05
2024-01-26 08:53:00,SystemResetWarning,0829.7,5.00,000.00,022.5,021.5,000.0,030.8,023.9,21.0,-001.1,0008.27,0005.23,0005.07
2024-01-26 08:54:00,SystemResetWarning,0829.7,5.00,000.00,022.5,021.5,000.0,030.8,023.9,20.9,-001.1,0008.27,0005.25,0005.09
2024-01-26 08:55:00,SystemResetWarning,0829.7,5.00,000.00,022.5,021.5,000.0,030.8,023.9,20.9,-000.3,0008.26,0005.29,0005.12
2024-01-26 08:56:00,SystemResetWarning,0829.7,5.00,000.00,022.4,021.5,000.0,030.8,023.9,20.9,-000.0,0008.45,0005.35,0005.16
2024-01-26 08:57:00,SystemResetWarning,0829.7,4.99,000.00,022.4,021.5,000.0,030.8,023.8,20.8,0000.1,0008.55,0005.41,0005.20
2024-01-26 08:58:00,SystemResetWarning,0829.7,5.00,000.00,022.4,021.5,000.0,030.8,023.8,20.8,0000.1,0008.09,0005.44,0005.24
2024-01-26 08:59:00,SystemResetWarning,0829.7,5.00,000.00,022.4,021.6,000.0,030.8,023.8,20.8,0001.0,0007.84,0005.46,0005.25
